#timestamp,LO_Frequency,Hit,StdDev 
1527523215.2,286046998.4,N
1527523235.0,286046998.3,N
1527523235.9,286046998.3,N
1527523255.8,286046999.3,N
1527523275.6,286046998.3,N
1527523295.4,286046998.3,N
1527523315.3,286046998.5,N
1527523335.1,286046998.3,N
1527523355.9,286046998.6,N
1527523375.7,286046998.5,N
1527523395.5,286046998.4,N
1527523415.4,286046998.4,N
1527523435.2,286046999.4,N
1527523455.1,286046998.4,Y
1527523456.0,286046998.4,P
1527523475.8,286047000.9,P
1527523495.6,286047000.9,N
1527523515.5,286047000.6,N
1527523535.3,286047001.0,N
1527523555.1,286047001.0,N
1527523575.9,286047001.0,N
1527523595.7,286047001.1,N
1527523615.6,286047001.2,N
1527523635.4,286047000.9,N
1527523655.2,286047001.2,N
1527523675.1,286046998.1,N
1527523676.0,286046998.1,N
1527523695.8,286046998.2,N
1527523715.6,286046998.5,N
1527523735.5,286046998.9,N
1527523755.3,286046998.6,N
1527523775.2,286046998.5,N
1527523795.9,286046998.3,N
1527523815.7,286046998.7,N
1527523835.6,286046998.4,N
1527523855.4,286046998.2,N
1527523875.2,286046998.1,N
1527523895.1,286047001.2,N
1527523896.0,286047001.2,N
1527523915.8,286047000.9,N
1527523935.7,286046998.1,N
1527523955.5,286046998.1,N
1527523975.3,286046998.5,N
1527523995.2,286047000.7,N
1527524015.0,286047000.8,N
1527524015.9,286047000.8,N
1527524035.8,286047000.7,N
1527524055.6,286047001.1,N
1527524075.4,286047000.8,N
1527524095.3,286047000.8,N
1527524115.1,286046998.3,N
1527524135.8,286046998.2,N
1527524155.7,286046998.9,N
1527524175.5,286046998.5,N
1527524195.4,286046998.1,N
1527524215.2,286046998.8,N
1527524235.0,286046998.5,N
1527524235.9,286046998.5,N
1527524255.8,286046998.5,N
1527524275.6,286046998.3,N
1527524295.4,286046999.1,N
1527524315.3,286046999.3,N
1527524335.1,286046999.6,N
1527524355.9,286046999.1,N
1527524375.7,286046999.2,N
1527524395.5,286046999.5,N
1527524415.4,286046996.6,Y
1527524435.2,286046998.2,P
1527524455.0,286046998.3,N
1527524455.9,286046998.3,P
1527524475.8,286046999.1,N
1527524495.6,286046998.9,N
1527524515.5,286046998.5,Y
1527524535.3,286047000.6,P
1527524555.1,286047000.6,N
1527524575.9,286047000.2,N
1527524595.7,286047000.7,N
1527524615.5,286047000.5,N
1527524635.4,286047001.2,N
1527524655.2,286047001.2,N
1527524675.1,286046998.1,N
1527524676.0,286046998.1,N
1527524695.8,286046998.2,N
1527524715.6,286046998.4,N
1527524735.5,286046998.9,N
1527524755.3,286046998.5,N
1527524775.1,286046999.0,N
1527524795.9,286046998.3,N
1527524815.7,286046998.7,N
1527524835.6,286046998.5,N
1527524855.4,286046998.2,N
1527524875.2,286047000.7,N
1527524895.1,286046998.3,N
1527524896.0,286046998.3,N
1527524915.8,286046998.6,N
1527524935.7,286047000.7,N
1527524955.5,286046998.6,N
1527524975.3,286046998.3,N
1527524995.2,286046998.8,N
1527525015.9,286046998.8,N
1527525035.7,286046999.1,N
1527525055.6,286046998.4,N
1527525075.4,286046998.7,N
1527525095.3,286046998.8,N
1527525115.1,286046998.5,N
1527525116.0,286046998.5,N
1527525135.8,286046998.5,N
1527525155.7,286046998.9,N
1527525175.5,286046999.4,N
1527525195.3,286046999.0,N
1527525215.2,286046999.4,N
1527525235.0,286046999.3,N
1527525235.9,286046999.3,N
1527525255.8,286046996.5,Y
1527525275.6,286046998.2,P
1527525295.4,286046998.8,P
1527525315.3,286046998.1,P
1527525335.1,286046998.2,Y
1527525355.8,286046999.8,P
1527525375.7,286047000.2,N
1527525395.5,286047000.6,N
1527525415.4,286047002.7,Y
1527525435.2,286047000.2,P
1527525455.0,286047000.9,P
1527525455.9,286047000.9,N
1527525475.8,286047000.5,N
1527525495.6,286047001.1,N
1527525515.5,286047000.9,N
1527525535.3,286046998.2,Y
1527525555.1,286047000.8,P
1527525575.9,286047001.1,P
1527525595.7,286047000.5,N
1527525615.5,286046998.1,Y
1527525635.4,286046998.4,P
1527525655.2,286046998.7,N
1527525675.1,286046998.5,N
1527525676.0,286046998.5,N
1527525695.8,286046998.1,N
1527525715.6,286046998.2,N
1527525735.5,286046998.2,N
1527525755.3,286046999.0,N
1527525775.1,286046998.6,N
1527525795.9,286046998.3,N
1527525815.7,286046998.6,N
1527525835.6,286046998.6,N
1527525855.4,286046998.7,N
1527525875.2,286046998.7,N
1527525895.1,286046998.7,N
1527525896.0,286046998.7,N
1527525915.8,286046998.7,N
1527525935.6,286046998.6,N
1527525955.5,286046998.9,N
1527525975.3,286046999.0,N
1527525995.2,286046998.5,N
1527526015.9,286046999.4,N
1527526035.7,286046999.4,N
1527526055.6,286046999.5,N
1527526075.4,286046999.5,N
1527526095.2,286046996.5,Y
1527526115.1,286046998.3,P
1527526116.0,286046998.3,P
1527526135.8,286046998.5,P
1527526155.7,286046998.2,Y
1527526175.5,286047000.2,P
1527526195.3,286047000.2,N
1527526215.2,286047000.2,N
1527526235.0,286047000.6,N
1527526235.9,286047000.6,N
1527526255.7,286046999.9,N
1527526275.6,286047001.0,N
1527526295.4,286046999.9,N
1527526315.3,286047000.0,N
1527526335.1,286047000.3,N
1527526336.0,286047000.3,N
1527526355.8,286047000.5,N
1527526375.7,286047000.4,N
1527526395.5,286047000.5,N
1527526415.3,286047000.5,N
1527526435.2,286047000.9,N
1527526455.0,286047000.7,N
1527526455.9,286047000.7,N
1527526475.8,286047000.8,N
1527526495.6,286047000.4,N
1527526515.4,286047000.8,N
1527526535.3,286047000.8,N
1527526555.1,286047000.3,N
1527526575.8,286047001.2,N
1527526595.7,286047000.8,N
1527526615.5,286047001.1,N
1527526635.4,286047001.2,N
1527526655.2,286046998.1,Y
1527526675.0,286046999.0,P
1527526675.9,286046999.0,N
1527526695.8,286046998.6,N
1527526715.6,286046998.8,N
1527526735.4,286046998.8,N
1527526755.3,286046999.0,N
1527526775.1,286046998.6,N
1527526795.9,286046999.4,N
